Pagina principale
METAR-TAF:

METAR-TAF

Aeroporti :

Le Luc, Francia

latitudine: 43-23N, longitudine: 006-23E, altezza: 80 m

Osservazione

Il bollettino è stato emesso 21 minuti fa, alle 01:00 UTC
Vento 20 kt da ovest con raffiche fino a 32 kt
Temperature 16°C
Umidità 48%
Pressione 1009 hPa
Visibilità 10 km o più

METAR: LFMC 160100Z AUTO 28020G32KT 9999 ////// 16/05 Q1009

Ora: 03:21 (01:21 UTC)


TAF: mancante

Osservazioni e previsioni meteorologiche di più di 4000 aeroporti (messaggi METAR e TAF).

Le stazioni disponibili sono rappresentate dai dischi gialli e rossi sulla carta.

Puntare il mouse per vedere il nome della stazione.

Clicca sopra per visualizzare le osservazioni e previsioni meteorologiche.

Per cambiare la mappa : fare clic sui pulsanti verdi con una croce nera per ingrandire, il pulsante verde con un trattino per diminuire, o sulla freccia verde per le mappe adiacenti.


METAR-TAF: